Regional Weather Roundup
Issued by NWS

Home | Current Version | Previous Version | Graphics & Text | Print | Product List | Glossary On
Versions: 1 2 3 4 5 6 7 8 9 10 11 12 13 14 15 16 17 18 19 20 21 22 23 24 25 26 27 28 29 30 31 32 33 34 35 36 37 38 39 40 41 42 43 44 45 46 47 48 49 50
000
ASUS43 KBIS 290610
RWRND

NORTH DAKOTA REGIONAL WEATHER ROUNDUP
NATIONAL WEATHER SERVICE BISMARCK ND
100 AM CDT WED MAR 29 2017

NOTE: "FAIR" INDICATES FEW OR NO CLOUDS BELOW 12,000 FEET WITH NO
SIGNIFICANT WEATHER AND/OR OBSTRUCTIONS TO VISIBILITY.


NDZ001>003-009>011-017-290700-
NORTHWEST NORTH DAKOTA

CITY           SKY/WX    TMP DP  RH WIND       PRES   REMARKS
WILLISTON      FOG       35  35 100 S3        30.10F VSB 1/4
6HR MIN TEMP:  34; 6HR MAX TEMP:  46; 6HR PCP:  0.02;

MINOT          CLOUDY    42  39  89 CALM      30.10F
MINOT AFB      CLOUDY    41  39  94 NE6       30.09F
$$

NDZ018>021-031>035-040>046-290700-
SOUTHWEST NORTH DAKOTA

CITY           SKY/WX    TMP DP  RH WIND       PRES   REMARKS
BISMARCK       CLOUDY    48  39  71 S3        30.16R
6HR MIN TEMP:  44; 6HR MAX TEMP:  60;

DICKINSON      CLOUDY    44  41  89 S13       30.09F
GARRISON         N/A     42  37  82 SW5       30.11S
6HR MIN TEMP:  41; 6HR MAX TEMP:  54;

HETTINGER ARPT CLOUDY    44  40  85 S13       30.15F
$$

NDZ004>008-012>016-024-026-027-054-290700-
NORTHEAST NORTH DAKOTA

CITY           SKY/WX    TMP DP  RH WIND       PRES   REMARKS
GRAND FORKS    CLOUDY    35  35 100 N5        30.20F
GRND FRKS AFB  CLOUDY    32  32 100 NE3       30.21S
DEVILS LAKE    FAIR      34  34 100 SE6       30.18F FOG
$$

NDZ022-023-025-028>030-036>039-047>053-290700-
SOUTHEAST NORTH DAKOTA

CITY           SKY/WX    TMP DP  RH WIND       PRES   REMARKS
FARGO          PTCLDY    40  39  97 NE3       30.18F
6HR MIN TEMP:  38; 6HR MAX TEMP:  56;

JAMESTOWN      FAIR      38  36  92 CALM      30.17S
$$





USA.gov is the U.S. government's official web portal to all federal, state and local government web resources and services.